User: anonymous   Login
Location: ???????
(55.4362°N, 38.1183°E)
Time: 23:50:00
(UTC+00:00)
Language:

Cosmos 1932 - Orbit

View from above orbital plane
View from above orbital plane
View from above satellite
View from above satellite

Ground track
Ground track

The orbit data is extracted from the following two-line orbital elements,

1 18957U 88019A   21259.37173664 -.00000064  00000-0  22178-4 0  9997
2 18957  65.0425 266.6312 0029473 103.6274 256.8070 13.79690236689803
Epoch (UTC): 16 September 2021 08:55:18
Eccentricity: 0.0029473
inclination: 65.0425°
perigee height: 943 km
apogee height: 986 km
right ascension of ascending node: 266.6312°
argument of perigee: 103.6274°
revolutions per day: 13.79690236
mean anomaly at epoch: 256.8070°
orbit number at epoch: 68980

The dashed part of the orbit path shows where the satellite is in the earth's shadow,  

DLR